Location: Kuffner-Sternwarte
(48.2130°N, 16.2960°E)
Time: 10:59:04
(UTC+02:00)

COROT - Visible Passes

Search period start: 09 May 2021 00:00
Search period end: 19 May 2021 00:00
Orbit: 601 x 886 km, 90.1° (Epoch: 08 May)

Date Brightness Start Highest point End Pass type
(mag) Time Alt. Az. Time Alt. Az. Time Alt. Az.
09 May 8.0 21:29:01 10° NE 21:32:29 16° ENE 21:35:29 11° ESE visible
09 May 6.2 23:07:05 10° N 23:12:43 86° W 23:15:14 36° S visible
10 May 8.5 00:48:23 10° NW 00:51:30 15° WNW 00:54:40 10° WSW visible
10 May 6.7 22:23:54 10° NNE 22:29:19 47° E 22:32:04 28° SE visible
11 May 7.7 00:03:50 10° NNW 00:08:39 30° WNW 00:11:50 18° WSW visible
11 May 7.6 21:41:10 10° NNE 21:45:41 24° E 21:48:53 15° ESE visible
11 May 6.6 23:20:03 10° N 23:25:36 60° W 23:28:39 28° SSW visible
12 May 8.8 01:03:08 10° NW 01:04:03 10° WNW 01:04:59 10° WNW visible
12 May 8.2 20:59:50 10° NE 21:01:46 12° ENE 21:03:43 10° E visible
12 May 6.3 22:36:39 10° N 22:42:20 69° E 22:45:29 28° SSE visible
13 May 8.2 00:17:12 10° NNW 00:21:21 21° WNW 00:25:15 11° WSW visible
13 May 7.1 21:53:39 10° NNE 21:58:50 34° E 22:02:18 19° SE visible
13 May 7.2 23:33:07 10° N 23:38:26 42° W 23:42:05 19° SW visible
14 May 7.9 21:11:19 10° NE 21:15:03 17° ENE 21:18:47 10° ESE visible
14 May 6.3 22:49:32 10° N 22:55:17 84° W 22:58:54 24° S visible
15 May 8.6 00:30:52 10° NW 00:33:59 15° WNW 00:37:07 10° W visible
15 May 6.6 22:06:19 10° NNE 22:11:54 49° E 22:15:43 20° SSE visible
15 May 7.8 23:46:19 10° NNW 23:51:11 29° WNW 23:55:30 13° SW visible
16 May 7.5 21:23:34 10° NNE 21:28:15 25° ENE 21:32:34 11° SE visible
16 May 6.8 23:02:31 10° N 23:08:10 58° W 23:12:20 19° SSW visible
17 May 8.9 00:45:54 10° WNW 00:46:32 10° WNW 00:47:10 10° WNW visible
17 May 6.3 22:19:07 10° N 22:24:55 72° E 22:29:10 19° S visible
17 May 8.3 23:59:43 10° NNW 00:03:52 21° WNW 00:08:02 10° WSW visible
18 May 7.0 21:36:06 10° NNE 21:41:24 36° E 21:45:59 13° SE visible
18 May 7.4 23:15:37 10° N 23:20:59 40° WNW 23:25:46 13° SW visible
